Location: Newark
(45.2303°N, 123.8633°W)
Time: 08:42:38
(UTC+00:00)

N. Korean satellite - Visible Passes

Search period start: 20 September 2020 00:00
Search period end: 30 September 2020 00:00
Orbit: 455 x 503 km, 97.2° (Epoch: 19 September)

Date Brightness Start Highest point End Pass type
(mag) Time Alt. Az. Time Alt. Az. Time Alt. Az.
21 Sep 8.6 13:23:07 10° NNE 13:26:31 34° E 13:29:50 10° SSE visible
22 Sep 9.8 12:57:49 10° NE 13:00:20 17° E 13:02:49 10° SE visible
25 Sep 9.2 13:12:39 10° NE 13:15:45 26° E 13:18:48 10° SSE visible
26 Sep 10.0 12:47:45 10° ENE 12:49:31 13° E 12:51:18 10° ESE visible
28 Sep 8.2 13:27:41 10° NNE 13:31:07 39° E 13:34:28 10° SSE visible
29 Sep 9.6 13:02:16 10° NE 13:04:57 19° E 13:07:34 10° SE visible
